Hourly Data Report for July 22, 2021

POND INLET A
NUNAVUT
Current Station Operator: NAVCAN

72°41'22.000" N
77°58'08.000" W
61.60 m
2403206
71095
YIO

Download Data

Hourly Data (July 2021)
Hourly Data Report for July 22, 2021
TIME
LST
Temp Definition
°C
Dew Point Definition
°C
Rel Hum Definition
%
Precip. Amount Definition
mm

Wind Dir Definition
10's deg

Wind Spd Definition
km/h
Visibility Definition
km
Stn Press Definition
kPa
Hmdx Definition


Wind Chill Definition


Weather Definition


00:00 4.0 -0.7 71 0.0 19 24 16.1 99.26     LegendNANA
01:00 3.4 -0.4 76 0.0 22 30 16.1 99.28     LegendNANA
02:00 2.9 -0.2 80 0.0 21 26 16.1 99.31     LegendNANA
03:00 2.8 -0.4 79 0.0 23 32 16.1 99.34     LegendNANA
04:00 2.8 -0.5 79 0.0 21 24 16.1 99.38     LegendNANA
05:00 3.0 -0.9 75 0.0 21 22 16.1 99.41     LegendNANA
06:00 3.4 -1.0 73 0.0 23 22 16.1 99.42     LegendNANA
07:00 3.5 -0.4 76 0.0 23 24 16.1 99.45     LegendNANA
08:00 3.6 -0.3 76 0.0 23 21 16.1 99.47     LegendNANA
09:00 3.6 -0.9 72 0.0 24 26 16.1 99.45     LegendNANA
10:00 3.9 -0.3 74 0.0 24 24 16.1 99.44     LegendNANA
11:00 3.6 -1.1 71 0.0 24 26 16.1 99.42     LegendNANA
12:00 3.9 -1.4 68 0.0 24 24 16.1 99.39     LegendNANA
13:00 4.3 -1.9 64 0.0 24 18 16.1 99.39     LegendNANA
14:00 3.8 -1.8 67 0.0 25 18 16.1 99.39     LegendNANA
15:00 2.6 -1.2 76 0.0 27 24 16.1 99.42     Rain
16:00 1.1 0.7 97 0.2 26 11 6.4 99.46     Snow
17:00 1.0 0.6 97 0.2 24 11 4.8 99.45     Snow
18:00 0.6 0.3 98 0.5 15 9 3.2 99.43     Snow
19:00 1.8 0.8 93 0.2 15 8 16.1 99.43     Rain
20:00 2.0 1.1 93 0.0 28 5 16.1 99.44     Rain
21:00 1.8 0.8 93 0.0 2 5 16.1 99.47     LegendNANA
22:00 1.2 0.6 96 0.0 2 5 16.1 99.50     LegendNANA
23:00 1.3 0.6 95 0.0 2 9 16.1 99.52     LegendNANA

Notes on Data Quality.

Legend

  • E = Estimated
  • M = Missing
  • NA = Not Available*
  • [empty] = Indicates an unobserved value
Date modified: